カタログに戻る

COSMOS 374 DEB

運用中LEO
NORAD 14122·DEBRIS·🇷🇺 Russia

打ち上げ Oct 23, 1970 から Baikonur Cosmodrome

Loading…

次のパス (今後24時間)

TLE

最新Source: Space-Track

元期: Sep 14, 2026, 17:59 UTC

1 14122U 70089CW  26257.74976623  .00029428  00000-0  17033-2 0  9991
2 14122  62.8629  71.6947 0217551  35.7030 325.8392 14.94310682253996

AllMySatでCOSMOS 374 DEBをリアルタイム追跡

Download on the App Store